Location: Newark
(41.6500°N, 71.4833°W)
Time: 20:38:07
(UTC+00:00)

Courier 1B - Pass Details

Date: 28 January 2020
Orbit: 962 x 1209 km, 28.3° (Epoch: 19 February)

Event Time Altitude Azimuth Distance (km) Brightness Sun altitude
Rises 11:42:22 0° 255° (WSW) 3,998 10.2 -4.3°
Reaches altitude 10° 11:47:05 10° 230° (SW) 3,081 9.8 -3.4°
Maximum altitude 11:50:12 13° 205° (SSW) 2,887 10.0 -2.9°
Drops below altitude 10° 11:53:22 10° 181° (S) 3,121 10.5 -2.3°
Sets 11:58:13 0° 155° (SSE) 4,097 11.6 -1.5°
